Webcams

EDPO Webcam Blick Richtung Osten (local time)

Webcam-2

Info zum Bild:

  • Blick zum Kloster Mariahilf, Entfernung ca. 3km
  • Blick zur Kirche St. Johannes, Entfernung ca. 1km
  • Blick zu den beiden Windrädern, Entfernung ca. 6km

EDPO Webcam Blick Richtung Westen (local time)

Webcam-1

Info zum Bild:

  • Blick zum Tyrolsberg, Entfernung ca. 3,5km

Dillberg Webcam Blick Richtung Osten zu EDPO (local time)

Webcam-1

Info zum Bild:

  • Blick vom Dillberg Richtung Neumarkt, Höhe 555ft über EDPO

Dillberg Webcam Blick Richtung Westen zum Sender (local time)

Webcam-1

Info zum Bild:

  • Blick vom Dillberg Sender, Höhe bis Spitze 1322ft über EDPO
  • 600m Entfernung / Sichtweite von CAM zum Dillberg Sender

Sparkasse Webcam Blick Richtung Nord-West über Neumarkt


Snapshot

Info zum Bild:

Nürnberger Fernsehturm (Rundum CAM)


METAR Informationen der nächstgelegenen Flughäfen


EDDN / Flughafen Nürnberg „Albrecht Dürer“

EDDN 211220Z 27006KT 220V310 9999 SCT011 SCT017 BKN021 16/14 Q1006 TEMPO BKN007

ETIC / Fliegerhorst Grafenwöhr AAF

ETIC 211237Z AUTO 24004KT 8000 -RA BR BKN004 BKN013 BKN021 OVC050 14/14 A2970 RMK AO2 RAE02DZB02E04DZB07E08RAB08 CIG 004V014 SLP057 $

ETIH / Fliegerhorst Hohenfels AAF

ETIH 211220Z AUTO 24006KT 9999 OVC011 14/14 A2973 RMK AO2 SLP066 $